Date String (YYYY-MM-DD hh:mm:ss) UTC,Instrument flags,Ambient pressure (hPa),Sample flow (lpm),Bypass flow (lpm),Sample temperature (°C),Ambient temperature (°C),ASC tube jacket temperature (°C),LED temperature (°C),Box temperature (°C),Sample RH (%),Span deviation,Mass concentration (μg/m³),Mass concentration (μg/m³),Mass concentration (μg/m³)
DateTimeUTC,F1_M11,P_M11,Q1_M11,Q2_M11,T1_M11,T2_M11,T3_M11,T4_M11,T5_M11,U1_M11,ZSPAN_M11,X2_M11,X0_M11,X1_M11
2023-03-13 04:00:00,,0826.5,5.01,0.00,22.6,21.1,00.0,31.2,24.3,15.3,-000.8,0007.18,0011.06,0006.68
2023-03-13 04:01:00,,0826.5,5.00,0.00,22.5,21.1,00.0,31.2,24.3,15.3,-000.2,0007.17,0011.03,0006.69
2023-03-13 04:02:00,,0826.4,5.01,0.00,22.5,21.0,00.0,31.2,24.3,15.3,-000.2,0007.19,0011.97,0006.70
2023-03-13 04:03:00,,0826.4,5.00,0.00,22.5,21.0,00.0,31.2,24.3,15.3,-000.4,0007.21,0012.11,0006.72
2023-03-13 04:04:00,,0826.4,5.00,0.00,22.5,21.0,00.0,31.2,24.3,15.4,-000.4,0007.23,0012.47,0006.75
2023-03-13 04:05:00,,0826.4,5.00,0.00,22.5,21.0,00.0,31.2,24.3,15.3,-000.3,0007.22,0012.94,0006.74
2023-03-13 04:06:00,,0826.4,5.00,0.00,22.5,21.0,00.0,31.2,24.3,15.3,-000.1,0007.20,0013.24,0006.73
2023-03-13 04:07:00,,0826.4,5.01,0.00,22.5,21.0,00.0,31.2,24.3,15.3,0000.2,0007.17,0013.12,0006.74
2023-03-13 04:08:00,,0826.5,5.00,0.00,22.5,20.9,00.0,31.2,24.3,15.3,0000.3,0007.16,0013.29,0006.75
2023-03-13 04:09:00,,0826.5,5.01,0.00,22.5,20.9,00.0,31.2,24.3,15.3,0000.4,0007.19,0013.56,0006.75
2023-03-13 04:10:00,,0826.5,5.00,0.00,22.5,20.9,00.0,31.2,24.2,15.3,0000.2,0007.19,0013.62,0006.75
2023-03-13 04:11:00,,0826.5,5.00,0.00,22.4,20.9,00.0,31.2,24.2,15.3,-000.2,0007.18,0013.61,0006.73
2023-03-13 04:12:00,,0826.5,5.00,0.00,22.4,20.9,00.0,31.2,24.2,15.3,-000.5,0007.17,0013.55,0006.71
2023-03-13 04:13:00,,0826.5,5.01,0.00,22.4,20.9,00.0,31.2,24.2,15.3,-000.8,0007.16,0012.57,0006.70
2023-03-13 04:14:00,,0826.5,5.01,0.00,22.4,20.9,00.0,31.2,24.2,15.3,-000.8,0007.14,0012.60,0006.69
2023-03-13 04:15:00,,0826.5,5.02,0.00,22.4,20.9,00.0,31.2,24.2,15.3,-000.7,0007.14,0012.45,0006.67
2023-03-13 04:16:00,,0826.5,5.02,0.00,22.4,20.9,00.0,31.2,24.2,15.3,-000.8,0007.13,0011.94,0006.66
2023-03-13 04:17:00,,0826.5,5.00,0.00,22.4,20.9,00.0,31.2,24.2,15.3,-000.9,0007.10,0011.79,0006.66
2023-03-13 04:18:00,,0826.5,5.01,0.00,22.4,20.9,00.0,31.2,24.2,15.3,-000.6,0007.11,0011.91,0006.65
2023-03-13 04:19:00,,0826.5,5.00,0.00,22.4,20.8,00.0,31.2,24.2,15.3,-000.4,0007.12,0011.87,0006.63
2023-03-13 04:20:00,,0826.5,4.99,0.00,22.4,20.8,00.0,31.2,24.2,15.2,-000.6,0007.08,0011.74,0006.60
2023-03-13 04:21:00,,0826.5,5.00,0.00,22.4,20.8,00.0,31.1,24.2,15.3,-000.7,0007.06,0011.68,0006.58
2023-03-13 04:22:00,,0826.5,5.00,0.00,22.4,20.8,00.0,31.1,24.2,15.3,-000.3,0007.05,0011.65,0006.56
2023-03-13 04:23:00,,0826.5,4.99,0.00,22.4,20.8,00.0,31.1,24.2,15.2,-000.2,0007.06,0011.70,0006.54
2023-03-13 04:24:00,,0826.5,5.00,0.00,22.3,20.8,00.0,31.1,24.1,15.2,-000.1,0007.06,0011.61,0006.54
2023-03-13 04:25:00,,0826.5,5.00,0.00,22.3,20.8,00.0,31.1,24.1,15.2,-000.1,0007.05,0011.44,0006.52
2023-03-13 04:26:00,,0826.5,5.00,0.00,22.3,20.8,00.0,31.1,24.1,15.3,0000.3,0007.05,0011.09,0006.52
2023-03-13 04:27:00,,0826.5,5.01,0.00,22.4,21.4,00.0,31.1,24.3,15.2,0000.6,0007.02,0010.83,0006.50
2023-03-13 04:28:00,,0826.5,5.01,0.00,22.5,22.4,00.0,31.1,24.5,15.2,0000.6,0007.00,0010.51,0006.48
2023-03-13 04:29:00,,0826.5,4.99,0.00,22.6,23.1,00.0,31.1,24.7,15.1,0000.1,0006.96,0010.28,0006.46
2023-03-13 04:30:00,,0826.5,4.99,0.00,22.6,22.7,00.0,31.2,24.6,15.0,-000.3,0006.93,0010.15,0006.43
2023-03-13 04:31:00,,0826.5,5.00,0.00,22.6,22.4,00.0,31.2,24.6,15.0,-000.2,0006.92,0009.98,0006.44
2023-03-13 04:32:00,,0826.5,5.01,0.00,22.6,22.1,00.0,31.2,24.5,15.0,-000.4,0006.92,0010.45,0006.45
2023-03-13 04:33:00,,0826.5,5.00,0.00,22.6,21.8,00.0,31.2,24.5,15.0,-000.7,0006.94,0010.59,0006.45
2023-03-13 04:34:00,,0826.5,4.99,0.00,22.6,21.6,00.0,31.3,24.5,15.0,-001.2,0006.95,0010.62,0006.46
2023-03-13 04:35:00,,0826.5,5.00,0.00,22.6,21.4,00.0,31.3,24.4,15.0,-001.5,0006.93,0010.57,0006.47
2023-03-13 04:36:00,,0826.5,5.02,0.00,22.6,21.3,00.0,31.3,24.4,15.0,-001.5,0006.93,0010.61,0006.46
2023-03-13 04:37:00,,0826.5,4.99,0.00,22.6,21.2,00.0,31.3,24.4,15.0,-001.7,0006.95,0010.89,0006.44
2023-03-13 04:38:00,,0826.5,5.00,0.00,22.6,21.1,00.0,31.3,24.3,15.1,-001.6,0006.98,0011.06,0006.45
2023-03-13 04:39:00,,0826.5,4.99,0.00,22.6,21.1,00.0,31.3,24.3,15.2,-001.5,0007.01,0011.11,0006.46
2023-03-13 04:40:00,,0826.5,5.00,0.00,22.6,21.0,00.0,31.3,24.3,15.2,-001.1,0007.05,0011.46,0006.48
2023-03-13 04:41:00,,0826.5,5.01,0.00,22.5,20.9,00.0,31.3,24.3,15.2,-001.4,0007.07,0011.56,0006.51
2023-03-13 04:42:00,,0826.4,5.00,0.00,22.5,20.9,00.0,31.3,24.2,15.3,-001.3,0007.11,0011.56,0006.55
2023-03-13 04:43:00,,0826.4,4.99,0.00,22.5,20.8,00.0,31.3,24.2,15.3,-001.2,0007.13,0011.12,0006.55
2023-03-13 04:44:00,,0826.3,5.01,0.00,22.5,20.7,00.0,31.2,24.2,15.3,-000.9,0007.12,0011.01,0006.55
2023-03-13 04:45:00,,0826.3,4.99,0.00,22.5,20.7,00.0,31.2,24.1,15.3,-000.6,0007.10,0011.02,0006.54
2023-03-13 04:46:00,,0826.2,5.01,0.00,22.4,20.7,00.0,31.2,24.1,15.3,-000.2,0007.09,0011.25,0006.54
2023-03-13 04:47:00,,0826.3,4.98,0.00,22.4,20.7,00.0,31.2,24.1,15.3,-000.4,0007.15,0011.64,0006.55
2023-03-13 04:48:00,,0826.2,5.00,0.00,22.4,20.6,00.0,31.2,24.1,15.4,-000.8,0007.16,0011.60,0006.58
2023-03-13 04:49:00,,0826.2,5.00,0.00,22.4,20.6,00.0,31.2,24.1,15.4,-001.5,0007.18,0011.37,0006.60
2023-03-13 04:50:00,,0826.3,5.01,0.00,22.4,20.5,00.0,31.2,24.1,15.3,-002.2,0007.18,0011.77,0006.59
2023-03-13 04:51:00,,0826.3,4.99,0.00,22.3,20.5,00.0,31.2,24.0,15.2,-002.5,0007.12,0011.67,0006.55
2023-03-13 04:52:00,,0826.4,5.01,0.00,22.3,20.5,00.0,31.1,24.0,15.3,-002.2,0007.08,0011.55,0006.52
2023-03-13 04:53:00,,0826.2,5.01,0.00,22.3,20.5,00.0,31.1,24.0,15.3,-002.2,0007.06,0011.65,0006.47
2023-03-13 04:54:00,,0826.3,5.00,0.00,22.3,20.4,00.0,31.1,24.0,15.2,-002.0,0007.02,0011.64,0006.44
2023-03-13 04:55:00,,0826.3,4.98,0.00,22.3,20.4,00.0,31.1,24.0,15.2,-001.9,0006.99,0011.62,0006.42
2023-03-13 04:56:00,,0826.3,5.01,0.00,22.3,20.4,00.0,31.1,24.0,15.2,-001.6,0006.99,0011.60,0006.37
2023-03-13 04:57:00,,0826.4,5.02,0.00,22.3,21.3,00.0,31.0,24.2,15.2,-002.0,0006.94,0011.28,0006.33
2023-03-13 04:58:00,,0826.3,4.98,0.00,22.4,22.5,00.0,31.0,24.4,15.1,-001.6,0006.90,0011.39,0006.28
2023-03-13 04:59:00,,0826.4,5.01,0.00,22.5,22.9,00.0,31.1,24.6,15.0,-001.0,0006.84,0011.37,0006.22
